Hourly Data Report for January 25, 2022

TORONTO CITY
ONTARIO
Current Station Operator: ECCC - MSC

43°40'00.000" N
79°24'00.000" W
112.50 m
6158355
71508
XTO

Download Data

Hourly Data (January 2022)
Hourly Data Report for January 25, 2022
TIME
LST
Temp Definition
°C
Dew Point Definition
°C
Rel Hum Definition
%
Precip. Amount Definition
mm

Wind Dir Definition
10's deg

Wind Spd Definition
km/h
Visibility Definition
km
Stn Press Definition
kPa
Hmdx Definition


Wind Chill Definition


Weather Definition


00:00 -4.7 -6.8 85 0.0       99.24     LegendNANA
01:00 -5.5 -8.5 79 0.0       99.29     LegendNANA
02:00 -6.5 -9.5 79 0.0       99.35     LegendNANA
03:00 -7.2 -10.3 78 0.0       99.46     LegendNANA
04:00 -7.9 -10.9 79 0.0       99.53     LegendNANA
05:00 -7.7 -11.9 72 0.0       99.62     LegendNANA
06:00 -7.9 -12.4 70 0.0       99.75     LegendNANA
07:00 -8.6 -13.2 70 0.0       99.91     LegendNANA
08:00 -8.9 -13.8 68 0.0       100.04     LegendNANA
09:00 -8.6 -13.8 66 0.0       100.15     LegendNANA
10:00 -8.0 -14.6 59 0.0       100.25     LegendNANA
11:00 -6.8 -14.8 53 0.0       100.37     LegendNANA
12:00 -6.5 -15.5 49 0.0       100.44     LegendNANA
13:00 -6.2 -17.0 42 0.0       100.43     LegendNANA
14:00 -5.9 -16.3 44 0.0       100.45     LegendNANA
15:00 -6.6 -17.0 43 0.0       100.53     LegendNANA
16:00 -7.3 -17.2 45 0.0       100.62     LegendNANA
17:00 -8.4 -15.2 58 0.0       100.74     LegendNANA
18:00 -9.1 -15.6 59 0.0       100.84     LegendNANA
19:00 -9.7 -16.7 56 0.0       100.92     LegendNANA
20:00 -10.4 -17.6 55 0.0       101.02     LegendNANA
21:00 -11.1 -17.8 58 0.0       101.04     LegendNANA
22:00 -11.4 -18.3 57 0.0       101.07     LegendNANA
23:00 -11.8 -17.8 61 0.0       101.07     LegendNANA

Notes on Data Quality.

Legend

  • E = Estimated
  • M = Missing
  • NA = Not Available*
  • [empty] = Indicates an unobserved value
Date modified: